Location: �bnet
(46.9957°N, 8.4908°E)
Time: 23:55:54
(UTC+00:00)

Cosmos 1151 Rocket - Pass Details

Date: 11 May 2021
Orbit: 591 x 616 km, 82.5° (Epoch: 18 June)

Event Time Altitude Azimuth Distance (km) Brightness Sun altitude
Exits shadow 19:56:20 - 178° (S) 2,544 5.8 -10.1°
Reaches altitude 10° 19:57:46 10° 176° (S) 1,963 5.2 -10.3°
Maximum altitude 20:02:04 63° 95° (E) 688 3.1 -10.9°
Drops below altitude 10° 20:06:25 10° 15° (NNE) 1,989 6.0 -11.4°
Sets 20:08:40 0° 13° (NNE) 2,900 7.0 -11.7°
